EW4713 Weather Reports


Display with metric or nautical units.
time (UTC)temp
F
wind
direction
speed
MPH
gust
MPH
rain 1hr
in
rain 24hr
in
rain mn
in
humidity
%
barometer
mb
20201027235558 29 292 2.0 13.0 0.00 0.00 0.00 67 1007.3
20201027235102 29 287 1.0 13.0 0.00 0.00 0.00 67 1007.2
20201027234527 29 84 0.0 10.0 0.00 0.00 0.00 65 1007.2
20201027234019 29 283 0.0 10.0 0.00 0.00 0.00 68 1007.3
20201027233512 29 239 2.0 10.0 0.00 0.00 0.00 66 1007.3
20201027233043 29 281 2.0 10.0 0.00 0.00 0.00 66 1007.1
20201027232454 29 7 2.0 10.0 0.00 0.00 0.00 65 1007.2
20201027231954 29 61 0.0 13.0 0.00 0.00 0.00 66 1007.4
20201027231440 30 292 3.0 13.0 0.00 0.00 0.00 64 1007.7
20201027230930 29 111 5.0 10.0 0.00 0.00 0.00 65 1007.5
20201027230425 29 92 2.0 13.0 0.00 0.00 0.00 64 1007.2
20201027225914 30 327 6.0 13.0 0.00 0.00 0.00 61 1007.3
20201027225407 30 267 3.0 10.0 0.00 0.00 0.00 62 1007.3
20201027224907 30 249 2.0 13.0 0.00 0.00 0.00 61 1007.6
20201027224349 30 125 3.0 13.0 0.00 0.00 0.00 63 1007.3
20201027223841 30 173 7.0 10.0 0.00 0.00 0.00 62 1007.7
20201027223359 30 151 1.0 10.0 0.00 0.00 0.00 63 1008.0
20201027222823 30 260 2.0 10.0 0.00 0.00 0.00 62 1007.9
20201027222316 30 327 2.0 8.0 0.00 0.00 0.00 60 1008.1
20201027221809 30 100 1.0 10.0 0.00 0.00 0.00 60 1008.6
20201027221259 30 269 4.0 10.0 0.00 0.00 0.00 60 1008.7
20201027220751 30 80 2.0 10.0 0.00 0.00 0.00 59 1008.8
20201027220243 30 133 6.0 10.0 0.00 0.00 0.00 59 1008.7
20201027215737 31 276 2.0 10.0 0.00 0.00 0.00 59 1008.8
20201027215227 31 105 1.0 15.0 0.00 0.00 0.00 59 1008.6
20201027214738 31 99 3.0 15.0 0.00 0.00 0.00 58 1008.6
20201027214211 31 38 0.0 15.0 0.00 0.00 0.00 60 1008.9
20201027213702 31 2 2.0 10.0 0.00 0.00 0.00 59 1008.8
20201027213203 31 283 3.0 10.0 0.00 0.00 0.00 57 1008.8
20201027212703 31 220 0.0 10.0 0.00 0.00 0.00 61 1008.8
20201027212136 31 180 1.0 15.0 0.00 0.00 0.00 59 1009.0
20201027211630 31 155 2.0 15.0 0.00 0.00 0.00 59 1009.2
20201027211124 31 27 0.0 13.0 0.00 0.00 0.00 60 1009.2
20201027210614 31 116 3.0 13.0 0.00 0.00 0.00 58 1009.2
20201027210105 31 74 1.0 10.0 0.00 0.00 0.00 59 1009.2
20201027205609 30 126 5.0 10.0 0.00 0.00 0.00 60 1009.2
20201027205106 31 51 2.0 10.0 0.00 0.00 0.00 61 1009.7
20201027204530 31 169 2.0 10.0 0.00 0.00 0.00 61 1009.5
20201027204026 31 125 3.0 10.0 0.00 0.00 0.00 59 1009.7
20201027203514 31 187 0.0 8.0 0.00 0.00 0.00 61 1009.6
20201027203018 31 279 2.0 8.0 0.00 0.00 0.00 60 1009.7
20201027202500 30 165 3.0 10.0 0.00 0.00 0.00 60 1009.7
20201027201948 31 165 2.0 10.0 0.00 0.00 0.00 60 1009.9
20201027201439 31 94 0.0 10.0 0.00 0.00 0.00 59 1010.1
20201027200930 31 108 2.0 10.0 0.00 0.00 0.00 58 1009.8
20201027200424 31 220 0.0 15.0 0.00 0.00 0.00 59 1010.1
20201027195917 31 165 3.0 15.0 0.00 0.00 0.00 59 1010.2
20201027195415 30 226 0.0 13.0 0.00 0.00 0.00 61 1010.5
20201027194857 30 226 6.0 15.0 0.00 0.00 0.00 61 1010.5
20201027194350 30 119 4.0 10.0 0.00 0.00 0.00 61 1010.6
20201027193843 30 238 0.0 10.0 0.00 0.00 0.00 62 1010.9
20201027193332 30 230 0.0 8.0 0.00 0.00 0.00 61 1011.1
20201027192831 30 35 1.0 10.0 0.00 0.00 0.00 62 1010.8
20201027192319 30 118 4.0 10.0 0.00 0.00 0.00 61 1010.6
20201027191814 30 218 3.0 8.0 0.00 0.00 0.00 60 1011.1
20201027191302 30 252 5.0 10.0 0.00 0.00 0.00 60 1011.4
20201027190753 30 147 2.0 13.0 0.00 0.00 0.00 61 1011.1
20201027190244 30 116 1.0 13.0 0.00 0.00 0.00 61 1011.5
20201027185738 30 188 2.0 10.0 0.00 0.00 0.00 62 1011.6
20201027185226 29 103 2.0 10.0 0.00 0.00 0.00 62 1011.7
20201027184718 29 147 3.0 8.0 0.00 0.00 0.00 63 1012.0
20201027184211 29 309 1.0 8.0 0.00 0.00 0.00 65 1012.1
20201027183709 28 240 3.0 8.0 0.00 0.00 0.00 63 1012.1
20201027183208 28 258 0.0 8.0 0.00 0.00 0.00 64 1012.2
20201027182649 28 109 2.0 8.0 0.00 0.00 0.00 64 1012.1
20201027182138 27 283 0.0 13.0 0.00 0.00 0.00 65 1012.2
20201027181645 27 239 3.0 13.0 0.00 0.00 0.00 63 1012.4
20201027181124 27 250 6.0 10.0 0.00 0.00 0.00 61 1012.6
20201027180617 27 146 1.0 10.0 0.00 0.00 0.00 63 1012.7
20201027180148 27 212 1.0 10.0 0.00 0.00 0.00 62 1012.6
20201027175058 28 175 2.0 10.0 0.00 0.00 0.00 61 1013.0
20201027174542 28 135 2.0 10.0 0.00 0.00 0.00 62 1013.3
20201027174023 27 215 2.0 8.0 0.00 0.00 0.00 60 1013.1
20201027173521 27 222 0.0 8.0 0.00 0.00 0.00 62 1013.1
20201027173025 27 213 2.0 8.0 0.00 0.00 0.00 62 1013.5
20201027172511 27 99 3.0 10.0 0.00 0.00 0.00 62 1013.4
20201027171959 27 344 1.0 10.0 0.00 0.00 0.00 62 1013.5
20201027171459 27 91 3.0 8.0 0.00 0.00 0.00 63 1013.9
20201027170948 27 247 2.0 8.0 0.00 0.00 0.00 63 1013.8
20201027170436 27 149 1.0 8.0 0.00 0.00 0.00 64 1014.0
20201027165927 27 153 3.0 8.0 0.00 0.00 0.00 62 1013.8
20201027165418 27 77 2.0 8.0 0.00 0.00 0.00 63 1014.1
20201027164916 27 161 0.0 10.0 0.00 0.00 0.00 64 1014.1
20201027164406 26 161 3.0 10.0 0.00 0.00 0.00 63 1014.2
20201027163856 26 275 1.0 10.0 0.00 0.00 0.00 63 1014.3
20201027163400 26 222 4.0 10.0 0.00 0.00 0.00 64 1014.2
20201027162841 26 239 5.0 10.0 0.00 0.00 0.00 62 1014.4
20201027162328 26 100 2.0 10.0 0.00 0.00 0.00 64 1014.5
20201027161819 27 164 0.0 13.0 0.00 0.00 0.00 64 1014.6
20201027161311 26 172 2.0 15.0 0.00 0.00 0.00 62 1014.5
20201027160803 26 157 3.0 10.0 0.00 0.00 0.00 63 1014.9
20201027160255 26 133 1.0 10.0 0.00 0.00 0.00 65 1014.6
20201027155747 25 212 3.0 10.0 0.00 0.00 0.00 65 1014.8
20201027155242 25 205 5.0 8.0 0.00 0.00 0.00 66 1014.9
20201027154731 24 322 4.0 13.0 0.00 0.00 0.00 68 1015.1
20201027154223 24 106 4.0 13.0 0.00 0.00 0.00 69 1015.3
20201027153716 24 134 2.0 13.0 0.00 0.00 0.00 70 1015.1
20201027153214 23 86 1.0 8.0 0.00 0.00 0.00 71 1015.2
20201027152701 23 108 2.0 8.0 0.00 0.00 0.00 71 1015.3
20201027152143 22 104 5.0 8.0 0.00 0.00 0.00 72 1015.2
20201027151635 21 182 0.0 10.0 0.00 0.00 0.00 74 1015.4
20201027151131 21 215 0.0 10.0 0.00 0.00 0.00 74 1015.5
20201027150620 21 96 6.0 10.0 0.00 0.00 0.00 75 1015.4
20201027150106 20 191 6.0 10.0 0.00 0.00 0.00 75 1015.9
20201027145558 20 273 1.0 8.0 0.00 0.00 0.00 76 1016.0
20201027145059 19 134 1.0 2.0 0.00 0.00 0.00 77 1016.0